{"data":{"norad_id":27606,"intl_designator":"2002-058B","name":"LATINSAT B","alt_names":[],"object_type":"PAYLOAD","status":"ACTIVE","operator":null,"country":"ARGN","launch_date":"2002-12-20","launch_site_code":"TYMSC","launch_vehicle":null,"mission":null,"orbit_class":"UNKNOWN","rcs_meters":0.025,"size_class":null,"mass_kg":null,"dimensions":null,"purposes":[],"wikipedia_slug":null,"has_3d_model":false,"image_url":null,"decayed_at":null,"tle_current":{"epoch":"2026-09-19T21:02:02.280192Z","epoch_age_seconds":68393,"freshness":"FRESH","line1":"1 27606U 02058B   26262.87641528  .00000332  00000+0  64463-4 0  9999","line2":"2 27606  64.5553 320.4793 0085429 251.4800 107.7007 14.77126711276089","mean_motion":14.77126711,"eccentricity":0.0085429,"inclination_deg":64.5553,"raan_deg":320.4793,"arg_perigee_deg":251.48,"mean_anomaly_deg":107.7007,"bstar":6.4463e-5,"rev_number":27608,"period_min":97.486558822373,"perigee_km":578.46676451385,"apogee_km":698.35005608514,"semimajor_km":7016.5454102995,"source":"CELESTRAK","updated_at":"2026-09-20T09:00:13.583946Z"}}}